Total_Precipitation_Accumulation
1.69 1.63 2.68 2.75 2.50 2.23 2.12 2.12 2.27 2.40 2.57 2.62 2.46 2.26 2.11 2.12 2.24 2.37 2.44 2.35 2.28 2.22 2.25 2.25 2.31 2.33 2.21 1.96 2.00 2.18 2.42 2.57 2.47 2.42 2.46 2.47 2.73 2.77 2.90 3.08 3.05 3.02 3.10
1.30 1.51 2.56 2.57 2.32 2.11 2.11 2.18 2.18 2.17 2.22 2.32 2.42 2.30 2.19 2.24 2.36 2.42 2.45 2.36 2.26 2.15 2.15 2.27 2.37 2.32 2.16 2.02 2.06 2.27 2.43 2.50 2.50 2.68 3.01 2.98 3.07 3.14 3.08 3.04 3.06 3.14 3.13
1.10 1.32 1.96 2.38 2.26 2.12 2.09 2.07 2.16 2.18 2.12 2.14 2.26 2.30 2.25 2.42 2.56 2.56 2.54 2.45 2.37 2.24 2.22 2.21 2.19 2.23 2.05 2.11 2.32 2.39 2.29 2.35 2.63 2.80 3.19 3.47 3.13 3.13 3.12 3.15 3.07 3.19 3.20
0.95 1.15 1.70 2.38 2.29 2.22 2.25 2.28 2.33 2.29 2.08 1.99 2.00 2.00 2.08 2.28 2.50 2.64 2.71 2.57 2.56 2.47 2.30 2.11 2.05 2.19 2.10 2.14 2.37 2.31 2.22 2.38 2.68 2.71 2.90 3.27 3.21 3.28 3.44 3.54 3.44 3.39 3.48
0.99 1.12 1.77 2.46 2.26 2.21 2.28 2.42 2.37 2.22 2.14 2.02 1.99 2.03 2.06 2.26 2.49 2.64 2.62 2.58 2.63 2.60 2.45 2.30 2.17 2.28 2.24 2.23 2.25 2.26 2.33 2.47 2.64 2.36 2.57 2.99 3.72 3.86 3.33 3.58 3.75 3.61 3.41
0.89 1.03 1.61 2.37 2.25 2.16 2.21 2.42 2.29 2.13 2.18 2.08 2.01 2.09 2.20 2.49 2.76 2.75 2.67 2.77 2.67 2.61 2.46 2.44 2.34 2.34 2.30 2.27 2.24 2.31 2.45 2.51 2.24 2.24 2.53 2.86 3.50 3.83 3.18 3.21 3.39 3.46 3.38
0.89 0.96 1.33 2.07 2.16 2.12 2.17 2.28 2.21 2.24 2.30 2.13 2.04 2.10 2.27 2.47 2.68 2.79 2.75 2.79 2.80 2.85 2.74 2.57 2.47 2.34 2.25 2.25 2.19 2.26 2.42 2.24 1.86 2.20 2.43 2.88 3.22 3.41 3.02 2.93 3.08 3.33 3.63
0.99 0.92 1.10 1.73 1.93 1.98 2.18 2.18 2.16 2.18 2.15 2.06 2.11 2.16 2.23 2.35 2.50 2.58 2.61 2.68 2.73 2.77 2.79 2.62 2.47 2.31 2.23 2.11 2.20 2.35 2.34 1.89 1.46 1.81 2.25 2.84 3.50 3.47 2.98 2.78 2.92 3.22 3.63
1.36 1.18 1.17 1.30 1.44 1.77 2.16 2.16 2.20 2.21 2.03 1.94 1.95 2.00 2.02 2.07 2.20 2.27 2.36 2.49 2.53 2.60 2.55 2.41 2.32 2.31 2.29 2.14 2.10 2.19 2.14 1.83 1.60 1.80 1.78 2.74 3.61 3.46 2.99 2.75 2.77 2.96 3.26
1.38 1.32 1.25 1.24 1.27 1.59 1.79 2.04 2.28 2.31 2.14 1.92 1.83 1.81 1.92 1.91 1.96 2.09 2.12 2.43 2.60 2.62 2.51 2.42 2.34 2.24 2.29 2.26 2.13 2.04 1.94 1.64 1.41 1.51 1.94 2.72 3.55 3.46 3.06 2.75 2.60 2.52 2.72
1.31 1.33 1.25 1.25 1.36 1.64 1.79 1.83 2.13 2.28 2.23 1.80 1.54 1.57 1.56 1.52 1.63 1.76 1.84 2.39 2.60 2.81 2.76 2.60 2.40 2.25 2.15 2.11 2.09 1.97 1.57 1.33 1.31 1.49 2.03 3.10 3.67 3.66 3.17 2.77 2.56 2.35 2.26
1.13 1.16 1.15 1.15 1.21 1.38 1.54 1.90 2.05 1.85 1.91 1.56 1.45 1.42 1.42 1.50 1.57 1.42 1.64 2.16 2.40 2.64 2.71 2.56 2.43 2.15 1.85 1.66 1.64 1.61 1.38 1.18 1.19 1.40 2.16 3.32 3.88 3.95 3.38 2.86 2.44 2.21 2.18
0.99 0.93 0.88 0.93 0.95 1.09 1.29 1.44 1.66 1.88 1.86 1.81 1.71 1.59 1.61 1.49 1.36 1.36 1.52 1.71 1.94 2.13 2.18 2.23 2.15 1.85 1.63 1.56 1.53 1.38 1.30 1.11 1.19 1.39 2.25 3.23 3.84 4.10 3.75 3.14 2.58 2.44 2.48
1.04 1.04 0.86 0.79 0.84 0.93 1.05 1.18 1.36 1.53 1.62 1.62 1.52 1.39 1.59 1.57 1.40 1.43 1.62 1.73 1.78 1.96 2.23 2.30 2.22 1.93 1.69 1.53 1.47 1.33 1.24 1.16 1.18 1.33 2.07 2.76 3.40 3.82 3.91 3.51 2.93 2.62 2.56
1.06 1.12 0.98 0.80 0.81 0.93 1.03 1.08 1.05 1.26 1.38 1.40 1.50 1.37 1.40 1.43 1.33 1.30 1.39 1.64 1.74 1.82 2.08 2.19 2.06 1.98 1.94 1.83 1.67 1.53 1.42 1.33 1.33 1.30 1.70 2.22 2.77 3.39 3.85 3.78 3.35 2.82 2.64
0.94 0.99 0.95 0.86 0.88 0.92 0.92 0.88 0.84 0.87 1.09 1.12 1.11 1.02 1.18 1.35 1.34 1.36 1.31 1.47 1.76 1.87 1.94 1.97 1.90 1.94 1.94 1.87 1.74 1.67 1.60 1.40 1.48 1.47 1.57 1.66 1.94 2.44 3.22 3.69 3.49 3.03 2.81
0.81 0.84 0.88 0.91 0.92 0.92 0.93 0.90 0.84 0.84 0.94 1.03 1.04 1.02 1.12 1.24 1.33 1.32 1.24 1.36 1.63 1.84 1.90 1.90 1.87 1.96 1.87 1.72 1.75 1.75 1.71 1.57 1.60 1.64 1.62 1.59 1.52 1.81 2.46 3.17 3.35 3.21 3.14
0.64 0.70 0.78 0.77 0.85 0.90 0.92 0.97 0.93 0.96 0.97 0.97 1.02 0.99 1.00 1.15 1.30 1.42 1.38 1.34 1.53 1.79 2.04 2.20 2.07 2.04 1.99 1.87 1.89 1.85 1.71 1.73 1.70 1.69 1.64 1.64 1.66 1.55 1.76 2.14 2.60 3.05 3.26
0.52 0.53 0.60 0.68 0.78 0.83 0.89 1.00 0.97 1.00 1.17 1.20 1.09 1.00 1.05 1.16 1.24 1.48 1.62 1.53 1.60 1.82 1.95 2.04 2.09 1.99 1.98 1.93 1.78 1.75 1.67 1.73 1.79 1.62 1.60 1.61 1.69 1.66 1.59 1.45 1.67 2.17 2.74
0.49 0.49 0.52 0.60 0.66 0.68 0.82 0.97 1.08 1.05 1.14 1.35 1.37 1.36 1.39 1.44 1.45 1.59 1.74 1.76 1.80 1.92 1.94 2.13 2.38 2.22 2.02 1.97 1.79 1.70 1.65 1.68 1.70 1.68 1.73 1.73 1.73 1.70 1.66 1.49 1.45 1.43 1.86
0.48 0.45 0.52 0.59 0.63 0.64 0.75 0.89 1.01 1.12 1.27 1.47 1.52 1.56 1.68 1.73 1.73 1.85 1.96 2.03 1.99 1.93 2.01 2.21 2.64 2.60 2.30 2.07 2.05 1.94 1.80 1.75 1.77 1.71 1.82 1.88 1.79 1.74 1.78 1.70 1.56 1.42 1.36
0.44 0.43 0.46 0.58 0.68 0.72 0.79 0.93 1.11 1.37 1.44 1.58 1.79 1.79 1.78 1.83 1.86 1.93 2.13 2.24 2.20 2.20 2.28 2.35 2.65 2.88 2.65 2.45 2.47 2.67 2.44 2.23 1.86 1.56 1.59 1.66 1.71 1.75 1.74 1.76 1.67 1.53 1.49
0.42 0.50 0.54 0.66 0.85 1.01 1.10 1.34 1.67 1.94 1.99 1.93 1.96 2.02 2.02 2.03 2.08 2.03 2.10 2.28 2.30 2.29 2.37 2.57 2.88 3.26 3.27 2.96 2.72 2.94 2.73 2.44 2.32 1.80 1.47 1.49 1.62 1.73 1.75 1.81 1.77 1.63 1.58
0.44 0.58 0.77 0.97 1.26 1.48 1.59 1.77 2.04 2.19 2.24 2.12 2.11 2.13 2.17 2.09 2.02 2.02 2.07 2.22 2.39 2.52 2.66 2.71 2.69 3.15 3.53 3.36 3.12 2.72 2.44 2.31 2.45 2.32 1.84 1.51 1.53 1.57 1.64 1.65 1.75 1.83 1.77
0.67 0.89 1.24 1.53 1.72 1.86 1.89 1.94 2.19 2.34 2.51 2.51 2.38 2.24 2.19 2.20 2.16 2.06 2.03 2.05 2.09 2.21 2.37 2.51 2.58 2.85 3.14 3.35 3.32 3.08 2.77 2.58 2.13 2.14 2.21 1.97 1.68 1.43 1.41 1.54 1.72 1.80 1.80
1.09 1.32 1.56 1.73 1.88 1.86 1.83 1.85 1.99 2.19 2.37 2.39 2.40 2.36 2.28 2.21 2.14 2.01 1.92 1.96 1.97 1.96 2.10 2.24 2.37 2.66 2.89 3.06 3.14 3.05 2.96 2.89 2.58 2.27 2.08 2.04 1.90 1.64 1.46 1.46 1.53 1.60 1.67